National Oceanic Atmosphere Administration National Weather Service Headquarters National Weather Service Headquarters
NOAA logo WFO Anchorage Scalable transition graphic NWS logo
Transition from title bar to navgation bar   Aviation Weather 10 AKDT 
blankspace Home   |   Mobile   |   Social Media   |   Mesonet   |   Surface Map   |   Radar   |   Submit Storm Reports   |   News =18 GMT 

LocalForecast by City, St or Zip Code

spacer

Forecasts/Products
  Public
  Forecast Discussion
    - With Glossary
  Aviation
  Marine
  Hydrology(RFC)
  Rivers & Lakes AHPS
  Ice Desk
  TV Weather
  Fire Weather
  Avalanche
  Travel 511
  Graphical
  xml logo RSS Feeds
  Marine FTPMail

spacer

Data
  Mesonet
  Model Graphics
  Local Model
  Observations
  Marine Obs
  Satellite/Radar
  Vent Factor
  Soaring Index
  Weather Links

spacer

Climate
  PAFC Climate
  Interactive Climate
  PAFC Records
  Local
  National
  More

spacer

Outreach
  About Us
  Community Outreach
  Kids' Page
  Tour/Speaker Request
  Weather Classroom
  Social Media

spacer

Reports
  COOP Observers
  Local Storm Reports
  Spotter Page
  Submit a Storm Report

spacer

Miscellaneous
  Archived Alaska Weather Stories
  Student Career Opportunities
  Research Papers

spacer

Print Friendly/
Low Bandwidth

  Public Forecasts
  Marine Forecasts

spacer

Contact Us
  mailto pafcweb

spacer

Facebook Follow the National Weather Service in Alaska on Twitter
USA.gov is the U.S. government's official web portal to all federal, state and local government web resources and services.


 ICAO ID:   AAWU Graphics

Internet access to TAFs and METAR observations is for planning purposes only. We can not guarantee the timeliness of internet products. Before flying please get a formal pilot briefing (1-800-992-7433) and ALWAYS file a Flight Plan!Pilot briefings are provided to licensed aircraft pilots, ONLY! Others may not use the above number to obtain weather information.

Check out the Key to TAFs and METARs for help with decoding the information.

A 12 hour summary of TAFs can be found here.

PAFA TAF
PAFA 251740Z 2518/2624  00000KT 1SM -SN BR BKN004 OVC018
     FM252000 VRB04KT P6SM SCT020 SCT050 BKN100
     FM260900 VRB04KT P6SM FEW050 SCT100 SCT200=


METAR PAFA 251753Z 00000KT 1SM R02L/6000VP6000FT -SN BR BKN004
 OVC018 M04/M06 A2997 RMK AO2 SLP160 P0000 60000 I6001 T10391056
 11039 21050 58004=
METAR PAFA 251753Z 00000KT 1SM R02L/6000VP6000FT -SN BR BKN004 OVC018
     M04/M06 A2997=
SPECI PAFA 251733Z 00000KT 3/4SM R02L/5500VP6000FT -SN BR BKN004 OVC018
     M04/M06 A2998 RMK AO2 P0000 T10391061=
PAFA 251733Z 00000KT 3/4SM R02L/5500VP6000FT -SN BR BKN004 OVC018
M04/M06 A2998=
PAFA 251718Z 00000KT 1 1/4SM R02L/6000VP6000FT -SN BR BKN004
     OVC018 M04/M06 A2998 RMK AO2 P0000 T10441061=
PAFA 251718Z 00000KT 1 1/4SM R02L/6000VP6000FT -SN BR BKN004
OVC018 M04/M06 A2998=
METAR PAFA 251653Z 00000KT 2SM -SN BR BKN004 OVC018 M04/M06 A2998 RMK
     AO2 FZDZB1557E50 SLP163 P0000 I1000 T10441061=
METAR PAFA 251653Z 00000KT 2SM -SN BR BKN004 OVC018 M04/M06 A2998=
SPECI PAFA 251559Z 00000KT 3SM -FZDZSN BR BKN004 OVC018 M04/M06 A2999
     RMK AO2 TWR VIS 5 FZDZB57 P0000 I1000 T10391056=
PAFA 251559Z 00000KT 3SM -FZDZSN BR BKN004 OVC018 M04/M06 A2999=
METAR PAFA 251553Z COR 00000KT 5SM -SN BR BKN005 OVC018 M04/M06 A2999
     RMK AO2 SNB53 SLP164 P0000 T10391061=
METAR PAFA 251553Z 00000KT 5SM -SN BR BKN005 OVC018 M04/M06 A2999=
PAFA 251453Z COR 00000KT 10SM FEW005 BKN018 OVC035 M04/M07 A2999
     RMK AO2 SLP165 T10441067 56006=
METAR PAFA 251453Z 00000KT 10SM FEW005 BKN018 OVC035 M04/M07 A2999=


National Weather Service
Anchorage Forecast Office
6930 Sand Lake Road
Anchorage, Ak 99502
(907) 266-5105 M-F/7-5pm
About Us
Career Opportunities
Glossary
Disclaimer
Privacy Policy
Credits
Alaska Weather Information Line:
1-800-472-0391